Regional Weather Roundup
Issued by NWS

Home | Current Version | Previous Version | Graphics & Text | Print | Product List | Glossary On
Versions: 1 2 3 4 5 6 7 8 9 10 11 12 13 14 15 16 17 18 19 20 21 22 23 24 25 26 27 28 29 30 31 32 33 34 35 36 37 38 39 40 41 42 43 44 45 46 47 48 49 50
000
ASUS43 KFSD 130102
RWRSD

WEATHER ROUNDUP FOR SOUTH DAKOTA
NATIONAL WEATHER SERVICE SIOUX FALLS SD
700 PM CST TUE DEC 12 2017

NOTE: "FAIR" INDICATES FEW OR NO CLOUDS BELOW 12,000 FEET WITH NO
SIGNIFICANT WEATHER AND/OR OBSTRUCTIONS TO VISIBILITY.


SDZ001>005-009-010-012>017-130200-
NORTHWEST AND NORTH CENTRAL SOUTH DAKOTA

CITY           SKY/WX    TMP DP  RH WIND       PRES   REMARKS
BUFFALO          N/A     45  16  31 W20       29.77F
FAITH            N/A     46  22  38 W17       29.80F
MOBRIDGE       CLOUDY    44  28  53 CALM      29.71F
$$

SDZ012>016-024>037-041>051-057-063-072>074-130200-
SOUTHWEST AND SOUTH CENTRAL SOUTH DAKOTA

CITY           SKY/WX    TMP DP  RH WIND       PRES   REMARKS
RAPID CTY ARPT CLOUDY    36  14  40 NW3       29.89F
PIERRE         CLEAR     50  25  37 W16       29.77F
CUSTER         CLEAR     48  11  22 W14G22    29.99F
ELLSWORTH AFB  CLOUDY    44  10  25 NW14      29.88F
PHILIP         CLEAR     46  22  38 W13       29.84F
PINE RIDGE     CLEAR     42  23  46 W5        29.93F
SPEARFISH      FAIR      57  10  15 W20G31    29.93F
WINNER         FAIR      46  21  37 SW9       29.84F
$$

SDZ004>011-016>023-039-040-130200-
NORTHEAST SOUTH DAKOTA

CITY           SKY/WX    TMP DP  RH WIND       PRES   REMARKS
ABERDEEN       CLOUDY    32  25  75 S7        29.71F WCI  26
WATERTOWN      CLEAR     31  27  85 S9        29.73F WCI  23
SISSETON         N/A     42  27  55 W18G30    29.65F
$$

SDZ017-020-022-023-036>040-048>070-130200-
SOUTHEAST SOUTH DAKOTA

CITY           SKY/WX    TMP DP  RH WIND       PRES   REMARKS
SIOUX FALLS    CLEAR     37  28  70 SW7       29.83F
HURON          CLEAR     38  24  57 S9        29.75F
CHAMBERLAIN    CLEAR     46  22  38 SW8       29.81F
MITCHELL       CLEAR     38  27  64 SW10      29.81F
YANKTON        CLEAR     38  25  59 S5        29.85F
$$

ABBREVIATIONS USED IN REMARKS
   TC - TEMPERATURE IN CELSIUS
  WCI - WIND CHILL INDEX
   HX - HEAT INDEX
  VSB - VISIBILITY




USA.gov is the U.S. government's official web portal to all federal, state and local government web resources and services.